Weather History for KPIT - October, 2012

Change the Weather History Date:

Monday, October 15, 2012

  Actual Average Record
Temperature  
Mean Temperature 59 °F 53 °F  
Max Temperature 70 °F 63 °F 87 °F (1897)
Min Temperature 47 °F 43 °F 30 °F (1876)
Degree Days  
Heating Degree Days 6 12  
Month to date heating degree days 170 153  
Since 1 July heating degree days 302 267  
Cooling Degree Days 0 0  
Month to date cooling degree days 5 6  
Year to date cooling degree days 1019 734  
Growing Degree Days 4 (Base 50)    
Moisture  
Dew Point 47 °F    
Average Humidity 71    
Maximum Humidity 89    
Minimum Humidity 53    
Precipitation  
Precipitation 0.22 in 0.07 in 3.56 in (1954)
Month to date precipitation 0.52 1.09  
Year to date precipitation 31.91 30.91  
Snow  
Snow 0.00 in 0.00 in T in (1961)
Month to date snowfall 0.0 0.0  
Since 1 July snowfall 0.0 0.0  
Snow Depth 0.00 in    
Sea Level Pressure  
Sea Level Pressure 29.79 in    
Wind  
Wind Speed 10 mph (West)    
Max Wind Speed 25 mph    
Max Gust Speed 36 mph    
Visibility 10 miles    
Events Rain    
T = Trace of Precipitation, MM = Missing Value Source: NWS Daily Summary

Daily Weather History Graph

Daily Weather History Graph

Search for Another Location

Airport or City:

Trip Planner

Search our weather history database for the weather conditions in past years. The results will help you decide how hot, cold, wet, or windy it might be!

Date:

Astronomy

Oct. 15, 2012 Rise Set
Actual Time 7:32 AM EDT 6:40 PM EDT
Civil Twilight 7:04 AM EDT 7:07 PM EDT
Nautical Twilight 6:33 AM EDT 7:39 PM EDT
Astronomical Twilight 6:01 AM EDT 8:10 PM EDT
Moon 7:41 AM EDT (10/15) 6:38 PM EDT (10/15)
Length of Visible Light 12h 02m
Length of Day
11h 07m
New Moon, 0% of the Moon is Illuminated
Oct 15
New Moon
Oct 21
First Quarter
Oct 29
Full
Nov 6
Last Quarter
Nov 13
New

Hourly Weather History & Observations

Time (EDT) Temp. Dew Point Humidity Pressure Visibility Wind Dir Wind Speed Gust Speed Precip Events Conditions
12:51 AM 70.0 °F 52.0 °F 53% 29.69 in 10.0 mi SSW 16.1 mph 26.5 mph N/A   Overcast
1:51 AM 69.1 °F 53.1 °F 57% 29.68 in 10.0 mi SSW 16.1 mph 26.5 mph N/A   Overcast
2:51 AM 68.0 °F 54.0 °F 61% 29.66 in 10.0 mi SW 16.1 mph 26.5 mph N/A   Overcast
3:51 AM 64.9 °F 55.0 °F 70% 29.66 in 10.0 mi SW 15.0 mph 21.9 mph 0.00 in Rain Light Rain
4:17 AM 60.8 °F 53.6 °F 77% 29.68 in 10.0 mi West 15.0 mph 26.5 mph 0.00 in Rain Light Rain
4:51 AM 59.0 °F 54.0 °F 83% 29.70 in 10.0 mi WSW 8.1 mph - 0.00 in   Overcast
5:51 AM 57.9 °F 52.0 °F 81% 29.72 in 10.0 mi West 9.2 mph - N/A   Mostly Cloudy
6:51 AM 55.9 °F 50.0 °F 80% 29.76 in 10.0 mi West 11.5 mph - N/A   Mostly Cloudy
7:38 AM 53.6 °F 44.6 °F 72% 29.75 in 10.0 mi West 12.7 mph - N/A   Mostly Cloudy
7:51 AM 53.1 °F 45.0 °F 74% 29.77 in 10.0 mi West 15.0 mph - N/A   Overcast
8:51 AM 53.1 °F 45.0 °F 74% 29.80 in 10.0 mi West 9.2 mph - N/A   Overcast
9:51 AM 54.0 °F 45.0 °F 72% 29.80 in 10.0 mi West 8.1 mph - N/A   Overcast
10:51 AM 55.0 °F 45.0 °F 69% 29.81 in 10.0 mi WSW 8.1 mph - N/A   Overcast
11:51 AM 55.9 °F 44.1 °F 64% 29.81 in 10.0 mi WSW 10.4 mph - N/A   Overcast
12:51 PM 57.0 °F 45.0 °F 64% 29.79 in 10.0 mi West 9.2 mph - N/A   Overcast
1:51 PM 57.9 °F 44.1 °F 60% 29.78 in 10.0 mi WSW 9.2 mph - N/A   Overcast
2:51 PM 57.0 °F 46.0 °F 67% 29.77 in 8.0 mi West 13.8 mph - 0.00 in Rain Light Rain
3:51 PM 57.0 °F 48.0 °F 72% 29.77 in 7.0 mi West 8.1 mph - 0.01 in Rain Rain
4:51 PM 51.1 °F 48.0 °F 89% 29.82 in 7.0 mi West 6.9 mph - 0.12 in Rain Light Rain
5:32 PM 51.8 °F 48.2 °F 88% 29.81 in 5.0 mi WSW 9.2 mph - 0.01 in Rain Light Rain
5:51 PM 51.1 °F 46.9 °F 86% 29.84 in 7.0 mi WNW 15.0 mph 19.6 mph 0.08 in Rain Light Rain
6:08 PM 50.0 °F 46.4 °F 87% 29.82 in 9.0 mi West 4.6 mph - 0.01 in   Overcast
6:44 PM 50.0 °F 46.4 °F 87% 29.83 in 10.0 mi West 5.8 mph - 0.01 in   Overcast
6:51 PM 50.0 °F 46.9 °F 89% 29.86 in 10.0 mi West 9.2 mph - 0.01 in   Overcast
7:27 PM 50.0 °F 46.4 °F 87% 29.85 in 10.0 mi NW 16.1 mph - 0.00 in   Overcast
7:51 PM 50.0 °F 45.0 °F 83% 29.88 in 10.0 mi WNW 12.7 mph - 0.00 in   Overcast
8:51 PM 48.9 °F 44.1 °F 83% 29.89 in 10.0 mi WNW 11.5 mph - N/A   Mostly Cloudy
9:51 PM 48.9 °F 44.1 °F 83% 29.91 in 10.0 mi WNW 8.1 mph - N/A   Overcast
10:51 PM 48.0 °F 43.0 °F 83% 29.91 in 10.0 mi West 4.6 mph - N/A   Overcast
11:51 PM 48.0 °F 43.0 °F 83% 29.91 in 10.0 mi West 5.8 mph - N/A   Overcast